Regional Weather Roundup
Issued by NWS

Home | Current Version | Previous Version | Text Only | Print | Product List | Glossary On
Versions: 1 2 3 4 5 6 7 8 9 10 11 12 13 14 15 16 17 18 19 20 21 22 23 24 25 26 27 28 29 30 31 32 33 34 35 36 37 38 39 40 41 42 43 44 45 46 47 48 49 50
190
ASUS43 KBIS 210402
RWRND

NORTH DAKOTA REGIONAL WEATHER ROUNDUP
NATIONAL WEATHER SERVICE BISMARCK ND
1000 PM CST MON FEB 20 2017

NOTE: "FAIR" INDICATES FEW OR NO CLOUDS BELOW 12,000 FEET WITH NO
SIGNIFICANT WEATHER AND/OR OBSTRUCTIONS TO VISIBILITY.


NDZ001>003-009>011-017-210500-
NORTHWEST NORTH DAKOTA

CITY           SKY/WX    TMP DP  RH WIND       PRES   REMARKS
WILLISTON      CLOUDY    36  30  79 N8        29.65F
MINOT          FAIR      36  31  82 SW12      29.69S
MINOT AFB      CLEAR     32  28  85 CALM      29.68S
$$

NDZ018>021-031>035-040>046-210500-
SOUTHWEST NORTH DAKOTA

CITY           SKY/WX    TMP DP  RH WIND       PRES   REMARKS
BISMARCK       FAIR      33  30  88 SE6       29.75S
DICKINSON      CLOUDY    39  28  64 E3        29.66F
GARRISON         N/A     34  30  85 CALM      29.70F
HETTINGER ARPT CLOUDY    42  26  53 SE8       29.72F
$$

NDZ004>008-012>016-024-026-027-054-210500-
NORTHEAST NORTH DAKOTA

CITY           SKY/WX    TMP DP  RH WIND       PRES   REMARKS
GRAND FORKS    CLEAR     32  28  85 SW5       29.72S
GRND FRKS AFB  CLEAR     30  30  99 SW5       29.72R
DEVILS LAKE    FAIR      33  31  92 W7        29.72R
$$

NDZ022-023-025-028>030-036>039-047>053-210500-
SOUTHEAST NORTH DAKOTA

CITY           SKY/WX    TMP DP  RH WIND       PRES   REMARKS
FARGO          CLEAR     33  32  96 S7        29.76S FOG
JAMESTOWN      FAIR      35  32  88 SW6       29.76R
$$





USA.gov is the U.S. government's official web portal to all federal, state and local government web resources and services.